This is the latest recevied weather packets stored in our database for station/object KE8GJZ-1. If no packets are shown the sender has not sent any weather packets the latest 10 day(s).
| Time | Temp. | Humidity | Pressure | Rain* | Wind** | Luminosity | Snow |
|---|---|---|---|---|---|---|---|
| 1778024823 | 10.56° C | 53% | 1006.1 hPa | 0 mm | - | 10 W/m² | - |
| 1778024521 | 10.56° C | 56% | 1006.3 hPa | 0 mm | - | 12 W/m² | - |
| 1778024217 | 10.56° C | 51% | 1006 hPa | 0 mm | - | 19 W/m² | - |
| 1778023915 | 11.11° C | 53% | 1006.1 hPa | 0 mm | - | 18 W/m² | - |
| 1778023612 | 11.11° C | 50% | 1005.9 hPa | 0 mm | - | 16 W/m² | - |
| 1778023310 | 11.11° C | 48% | 1006 hPa | 0 mm | - | 34 W/m² | - |
| 1778023006 | 11.11° C | 50% | 1006 hPa | 0 mm | - | 33 W/m² | - |
| 1778022705 | 11.11° C | 50% | 1005.8 hPa | 0 mm | - | 27 W/m² | - |
| 1778022403 | 11.11° C | 52% | 1005.8 hPa | 0 mm | - | 23 W/m² | - |
| 1778022099 | 11.11° C | 52% | 1005.9 hPa | 0 mm | - | 35 W/m² | - |
| 1778021795 | 11.67° C | 50% | 1005.8 hPa | 0 mm | - | 30 W/m² | - |
| 1778021492 | 11.67° C | 55% | 1005.9 hPa | 0 mm | - | 35 W/m² | - |
| 1778021188 | 11.67° C | 55% | 1005.6 hPa | 0 mm | - | 46 W/m² | - |
| 1778020886 | 11.67° C | 52% | 1005.7 hPa | 0 mm | - | 52 W/m² | - |
| 1778020583 | 11.67° C | 54% | 1005.9 hPa | 0 mm | - | 53 W/m² | - |
| 1778020279 | 11.67° C | 53% | 1006 hPa | 0 mm | - | 60 W/m² | - |
| 1778019976 | 11.67° C | 50% | 1006 hPa | 0 mm | - | 70 W/m² | - |
| 1778019672 | 11.67° C | 51% | 1006.3 hPa | 0 mm | - | 68 W/m² | - |
| 1778019369 | 11.67° C | 51% | 1005.9 hPa | 0 mm | - | 70 W/m² | - |
| 1778019065 | 11.67° C | 48% | 1005.8 hPa | 0 mm | - | 74 W/m² | - |
| 1778018763 | 12.22° C | 50% | 1006 hPa | 0 mm | - | 75 W/m² | - |
| 1778018461 | 12.22° C | 50% | 1005.9 hPa | 0 mm | - | 78 W/m² | - |
| 1778018158 | 12.22° C | 50% | 1005.7 hPa | 0 mm | - | 81 W/m² | - |
| 1778017856 | 12.22° C | 51% | 1005.9 hPa | 0 mm | - | 95 W/m² | - |
| 1778017554 | 12.22° C | 54% | 1005.9 hPa | 0 mm | - | 80 W/m² | - |
* Rain latest hour (hover to see other rain measurements)
** Current wind speed in m/s (hover to see current wind gust speed)